Location: Bishop�s Knoyle
(51.0728°N, 2.1714°W)
Time: 22:29:57
(UTC+00:00)

NOSS 3-4 (A) - Pass Details

Date: 18 September 2020
Orbit: 886 x 1326 km, 63.4° (Epoch: 19 October)

Event Time Altitude Azimuth Distance (km) Brightness Sun altitude
Exits shadow 22:41:30 46° 17° (NNE) 1,283 4.3 -34.8°
Drops below altitude 10° 22:46:15 10° 43° (NE) 2,812 6.1 -35.1°
Sets 22:49:02 0° 47° (NE) 3,832 6.8 -35.3°
